Narsarsuaq, Greenland

3:41 AM -02 on April 25, 2017 (GMT -0200)
Narsarsuaq

Weather History for BGBW - December, 2010

Change the Weather History Date:

Wednesday, December 29, 2010

  Actual Average Record
Temperature  
Mean Temperature 44 °F -  
Max Temperature 51 °F 28 °F 51 °F (2010)
Min Temperature 36 °F 12 °F -4 °F (2008)
Degree Days  
Heating Degree Days 22    
Moisture  
Dew Point 24 °F    
Average Humidity 45    
Maximum Humidity 66    
Minimum Humidity 23    
Precipitation  
Precipitation 0.00 in 0.05 in - ()
Sea Level Pressure  
Sea Level Pressure 29.33 in    
Wind  
Wind Speed 28 mph ()    
Max Wind Speed 44 mph    
Max Gust Speed 53 mph    
Visibility 6.5 miles    
Events Rain , Snow    
Averages and records for this station are not official NWS values.
T = Trace of Precipitation, MM = Missing Value Source: Averaged Metar Reports

Daily Weather History Graph

Daily Weather History Graph

Search for Another Location

Airport or City:

Trip Planner

Search our weather history database for the weather conditions in past years. The results will help you decide how hot, cold, wet, or windy it might be!

Date:

Astronomy

Dec. 29, 2010 Rise Set
Actual Time 9:16 AM -03 2:51 PM -03
Civil Twilight 8:15 AM -03 3:52 PM -03
Nautical Twilight 7:15 AM -03 4:51 PM -03
Astronomical Twilight 6:22 AM -03 5:45 PM -03
Moon 2:20 AM -03 (12/29) 11:05 AM -03 (12/29)
Length of Visible Light 7h 37m
Length of Day
5h 34m
Waning Crescent, 34% of the Moon is Illuminated
Dec 29
Waning Crescent
Jan 4
New
Jan 12
First Quarter
Jan 19
Full
Jan 26
Last Quarter

Hourly Weather History & Observations

Time (-03) Temp. Windchill Dew Point Humidity Pressure Visibility Wind Dir Wind Speed Gust Speed Precip Events Conditions
12:00 AM 36 °F - 17 °F 32% 29.52 in 25 mi East 31.1 mph - -   Unknown Precipitation
12:20 AM 37.4 °F 25.2 °F 19.4 °F 48% 29.47 in 6.2 mi East 28.8 mph - N/A   Overcast
12:50 AM 37.4 °F 24.6 °F 21.2 °F 52% 29.47 in 6.2 mi East 32.2 mph - N/A   Mostly Cloudy
1:20 AM 37.4 °F 24.6 °F 21.2 °F 52% 29.44 in 6.2 mi East 32.2 mph - N/A Rain Light Rain
1:50 AM 41.0 °F 30.5 °F 21.2 °F 45% 29.47 in 5.6 mi East 26.5 mph - N/A   Unknown
2:20 AM 41.0 °F 30.9 °F 21.2 °F 45% 29.44 in 6.2 mi East 24.2 mph 36.8 mph N/A   Unknown
2:50 AM 41.0 °F 30.7 °F 21.2 °F 45% 29.44 in 6.2 mi East 25.3 mph 39.1 mph N/A   Unknown
3:00 AM 40 °F - 20 °F 30% 29.45 in 4 mi East 24.2 mph - - Snow Light Snow
3:20 AM 41.0 °F 30.2 °F 21.2 °F 45% 29.42 in 6.2 mi East 27.6 mph - N/A   Unknown
3:50 AM 41.0 °F 30.0 °F 19.4 °F 42% 29.42 in 6.2 mi East 28.8 mph - N/A   Unknown
4:20 AM 41.0 °F 29.8 °F 19.4 °F 42% 29.42 in 6.2 mi East 29.9 mph - N/A   Unknown
4:50 AM 41.0 °F 30.2 °F 19.4 °F 42% 29.39 in 6.2 mi East 27.6 mph - N/A Rain Light Rain Showers
5:20 AM 41.0 °F 30.2 °F 19.4 °F 42% 29.39 in 6.2 mi East 27.6 mph - N/A   Unknown
5:50 AM 41.0 °F 29.8 °F 19.4 °F 42% 29.39 in 6.2 mi East 29.9 mph - N/A   Mostly Cloudy
6:00 AM 41 °F - 16 °F 23% 29.39 in 28 mi East 31.1 mph - - Snow Snow
6:20 AM 41.0 °F 29.8 °F 19.4 °F 42% 29.36 in 6.2 mi East 29.9 mph - N/A   Overcast
6:50 AM 42.8 °F 32.3 °F 17.6 °F 36% 29.36 in 6.2 mi East 29.9 mph - N/A   Mostly Cloudy
7:50 AM 44.6 °F 34.9 °F 19.4 °F 37% 29.36 in 6.2 mi East 28.8 mph - N/A   Mostly Cloudy
8:50 AM 44.6 °F 34.2 °F 24.8 °F 46% 29.33 in 6.2 mi East 33.4 mph 47.2 mph N/A Rain Light Rain
9:00 AM 43 °F - 21 °F 28% 29.34 in 22 mi East 35.7 mph - -   Overcast
9:50 AM 42.8 °F 31.0 °F 24.8 °F 49% 29.30 in 6.2 mi East 39.1 mph - N/A Rain Light Rain
10:50 AM 44.6 °F 33.3 °F 23.0 °F 43% 29.27 in 6.2 mi East 40.3 mph - N/A   Mostly Cloudy
11:50 AM 42.8 °F 30.4 °F 24.8 °F 49% 29.21 in 6.2 mi East 43.7 mph - N/A Rain Light Rain
12:00 PM 43 °F - 22 °F 30% 29.24 in 19 mi East 43.7 mph - - Rain Light Drizzle
12:50 PM 42.8 °F 31.0 °F 26.6 °F 53% 29.21 in 6.2 mi East 39.1 mph 52.9 mph N/A Rain Light Rain
1:50 PM 41.0 °F 27.9 °F 30.2 °F 65% 29.18 in 6.2 mi ENE 43.7 mph - N/A Rain Light Rain
2:50 PM 42.8 °F 31.3 °F 28.4 °F 57% 29.18 in 6.2 mi ENE 36.8 mph 50.6 mph N/A Rain Rain
3:00 PM 44 °F - 27 °F 39% 29.18 in 7 mi East 32.2 mph - - Rain Light Rain
3:50 PM 46.4 °F 37.2 °F 26.6 °F 46% 29.18 in 6.2 mi East 29.9 mph - N/A Rain Rain
4:50 PM 46.4 °F 36.9 °F 26.6 °F 46% 29.18 in 6.2 mi East 32.2 mph 43.7 mph N/A Rain Light Rain Showers
5:20 PM 44.6 °F 34.7 °F 26.6 °F 49% 29.18 in 3.1 mi East 29.9 mph 42.6 mph N/A   Unknown
5:50 PM 44.6 °F 34.2 °F 26.6 °F 49% 29.21 in 6.2 mi East 33.4 mph 46.0 mph N/A Rain Rain
6:00 PM 43 °F - 25 °F 36% 29.23 in 2 mi East 31.1 mph - - Rain Light Rain
6:20 PM 44.6 °F 35.1 °F 28.4 °F 53% 29.24 in 5.6 mi East 27.6 mph - N/A Rain Light Rain
6:50 PM 42.8 °F 32.3 °F 32.0 °F 66% 29.27 in 6.2 mi East 29.9 mph - N/A Rain Light Rain
7:20 PM 42.8 °F 32.1 °F 30.2 °F 61% 29.27 in 6.2 mi East 31.1 mph - N/A   Drizzle
7:50 PM 44.6 °F 34.9 °F 28.4 °F 53% 29.27 in 6.2 mi East 28.8 mph - N/A   Drizzle
8:20 PM 46.4 °F 37.9 °F 28.4 °F 50% 29.30 in 6.2 mi East 25.3 mph - N/A Rain Light Rain Showers
8:50 PM 46.4 °F 37.7 °F 28.4 °F 50% 29.30 in 6.2 mi East 26.5 mph - N/A Rain Light Rain Showers
9:00 PM 47 °F - 26 °F 30% 29.33 in 17 mi East 27.6 mph - - Rain Light Rain Showers
9:20 PM 48.2 °F - 28.4 °F 46% 29.33 in 6.2 mi East 25.3 mph - N/A   Mostly Cloudy
9:50 PM 50.0 °F - 28.4 °F 43% 29.33 in 6.2 mi East 24.2 mph - N/A   Mostly Cloudy
10:20 PM 50.0 °F - 30.2 °F 47% 29.33 in 6.2 mi East 25.3 mph - N/A   Overcast
10:50 PM 51.8 °F - 28.4 °F 41% 29.33 in 6.2 mi East 24.2 mph - N/A   Overcast
11:20 PM 50.0 °F - 28.4 °F 43% 29.36 in 6.2 mi East 23.0 mph - N/A   Overcast
11:50 PM 51.8 °F - 28.4 °F 41% 29.36 in 6.2 mi East 25.3 mph - N/A   Mostly Cloudy